Trinidad, CO

1:02 AM MDT on October 17, 2017 (GMT -0600)
Stokes

Weather History for KTAD - March, 2013

Change the Weather History Date:

Sunday, March 3, 2013

  Actual Average Record
Temperature  
Mean Temperature 51 °F 39 °F  
Max Temperature 69 °F 54 °F 74 °F (2009)
Min Temperature 32 °F 24 °F -10 °F (1960)
Degree Days  
Heating Degree Days 14 26  
Month to date heating degree days 65 79  
Since 1 July heating degree days 4006 4201  
Cooling Degree Days 0 0  
Month to date cooling degree days 0 0  
Year to date cooling degree days 0 0  
Moisture  
Dew Point 16 °F    
Average Humidity 32    
Maximum Humidity 56    
Minimum Humidity 8    
Precipitation  
Precipitation 0.00 in 0.03 in 0.31 in (1982)
Month to date precipitation 0.00 0.08  
Year to date precipitation 0.38 0.97  
Sea Level Pressure  
Sea Level Pressure 29.73 in    
Wind  
Wind Speed 7 mph (West)    
Max Wind Speed 22 mph    
Max Gust Speed 26 mph    
Visibility 10 miles    
Events      
T = Trace of Precipitation, MM = Missing Value Source: NWS Daily Summary

Daily Weather History Graph

Daily Weather History Graph

Search for Another Location

Airport or City:

Trip Planner

Search our weather history database for the weather conditions in past years. The results will help you decide how hot, cold, wet, or windy it might be!

Date:

Astronomy

Mar. 03, 2013 Rise Set
Actual Time 6:25 AM MST 5:53 PM MST
Civil Twilight 5:59 AM MST 6:19 PM MST
Nautical Twilight 5:29 AM MST 6:49 PM MST
Astronomical Twilight 4:58 AM MST 7:20 PM MST
Moon No Moon Rise 9:51 AM MST (3/3)
Length of Visible Light 12h 20m
Length of Day
11h 28m
Waning Gibbous, 63% of the Moon is Illuminated
Mar 3
Waning Gibbous
Mar 4
Last Quarter
Mar 11
New
Mar 19
First Quarter
Mar 27
Full

Hourly Weather History & Observations

Time (MST) Temp. Windchill Dew Point Humidity Pressure Visibility Wind Dir Wind Speed Gust Speed Precip Events Conditions
12:54 AM 35.1 °F 27.4 °F 18.0 °F 50% 30.00 in 10.0 mi West 10.4 mph - N/A   Clear
1:54 AM 35.1 °F 29.3 °F 18.0 °F 50% 29.97 in 10.0 mi West 6.9 mph - N/A   Clear
2:54 AM 37.0 °F 30.4 °F 19.0 °F 48% 29.90 in 10.0 mi SW 9.2 mph - N/A   Clear
3:54 AM 39.9 °F 33.9 °F 19.0 °F 43% 29.87 in 10.0 mi SW 9.2 mph - N/A   Clear
4:54 AM 34.0 °F 27.2 °F 19.0 °F 54% 29.88 in 10.0 mi NW 8.1 mph - N/A   Clear
5:54 AM 33.1 °F 24.4 °F 19.0 °F 56% 29.90 in 10.0 mi NW 11.5 mph - N/A   Clear
6:54 AM 36.0 °F 29.6 °F 19.0 °F 50% 29.88 in 10.0 mi West 8.1 mph - N/A   Clear
7:54 AM 39.9 °F 33.9 °F 21.0 °F 47% 29.86 in 10.0 mi West 9.2 mph - N/A   Clear
8:54 AM 50.0 °F - 21.9 °F 33% 29.81 in 10.0 mi Calm Calm - N/A   Clear
9:54 AM 57.0 °F - 18.0 °F 22% 29.76 in 10.0 mi Calm Calm - N/A   Clear
10:54 AM 62.1 °F - 12.9 °F 15% 29.71 in 10.0 mi Calm Calm - N/A   Clear
11:54 AM 64.9 °F - 7.0 °F 10% 29.68 in 10.0 mi East 5.8 mph - N/A   Clear
12:54 PM 66.0 °F - 5.0 °F 9% 29.64 in 10.0 mi East 4.6 mph - N/A   Clear
1:54 PM 68.0 °F - 5.0 °F 8% 29.59 in 10.0 mi SE 9.2 mph - N/A   Clear
2:54 PM 68.0 °F - 6.1 °F 9% 29.55 in 10.0 mi North 4.6 mph - N/A   Clear
3:54 PM 66.0 °F - 7.0 °F 10% 29.55 in 10.0 mi NW 5.8 mph - N/A   Clear
4:54 PM 64.9 °F - 10.9 °F 12% 29.58 in 10.0 mi West 8.1 mph - N/A   Clear
5:54 PM 55.9 °F - 16.0 °F 21% 29.64 in 10.0 mi West 8.1 mph - N/A   Clear
6:54 PM 53.1 °F - 15.1 °F 22% 29.64 in 10.0 mi West 16.1 mph - N/A   Clear
7:54 PM 53.1 °F - 18.0 °F 25% 29.64 in 10.0 mi West 13.8 mph 21.9 mph N/A   Clear
8:54 PM 50.0 °F - 19.9 °F 31% 29.64 in 10.0 mi WNW 10.4 mph - N/A   Clear
9:54 PM 50.0 °F - 21.0 °F 32% 29.61 in 10.0 mi West 12.7 mph - N/A   Clear
10:54 PM 45.0 °F 41.8 °F 21.0 °F 39% 29.60 in 10.0 mi NNW 5.8 mph - N/A   Clear
11:54 PM 46.9 °F - 21.0 °F 36% 29.57 in 10.0 mi Calm Calm - N/A   Clear